Tracking 21094 objects as of 11-Aug-2020
HD Live streaming from Space Station
objects crossing your sky now
Track the most recent launched group of Starlink satellites

EXPLORER 11

Track EXPLORER 11 now!
10-day predictions
EXPLORER 11 is classified as:


NORAD ID: 107
Int'l Code: 1961-013A
Perigee: 474.3 km
Apogee: 1,265.8 km
Inclination: 28.8 °
Period: 102.2 minutes
Semi major axis: 7241 km
RCS: 0.4708 m2 (medium)
Launch date: April 27, 1961
Source: United States (US)
Launch site: AIR FORCE EASTERN TEST RANGE (AFETR)
aabbcc
Your satellite tracking list
Your tracking list is empty




NASA's NSSDC Master Catalog

Two Line Element Set (TLE):
1   107U 61013A   20224.21405472 +.00000372 +00000-0 +26979-4 0  9993
2   107 028.7894 232.1784 0546545 239.8418 114.6913 14.08979579973956
Source of the keplerian elements: AFSPC